FLOCK 2K-01

Last updated on Feb. 14, 2018, 4:20 p.m. UTC

1 42852U 17042AD  18044.68507410  .00006908  00000-0  20140-3 0  9996
2 42852  96.9924 307.4734 0009917 192.3797 167.7205 15.35614020 32677
UTC
Height (km)
Latitude
Longitude
Inclination
Orbital Period
UTC large
Height (km)
Speed (km/s)
/
Latitude / Longitude
Inclination (degrees)
Orbital Period (minutes)
Azimuth
Elevation
Range (km)
Doppler Factor
iOS Compass Heading
iOS Angle